Olive Branch, MS

12:36 AM CST on January 19, 2018 (GMT -0600)
Olive Branch

Weather History for KOLV - December, 2012

Change the Weather History Date:

Wednesday, December 5, 2012

  Actual Average (KMEM) Record (KMEM)
Temperature  
Mean Temperature 54 °F -  
Max Temperature 60 °F 56 °F 76 °F (1892)
Min Temperature 48 °F 36 °F 17 °F (1886)
Degree Days  
Heating Degree Days 11    
Growing Degree Days 4 (Base 50)    
Moisture  
Dew Point 45 °F    
Average Humidity 78    
Maximum Humidity 100    
Minimum Humidity 45    
Precipitation  
Precipitation 0.00 in - - ()
Sea Level Pressure  
Sea Level Pressure 30.22 in    
Wind  
Wind Speed 8 mph (NNE)    
Max Wind Speed 14 mph    
Max Gust Speed -    
Visibility 8 miles    
Events      
Averages and records for this station are not official NWS values.
T = Trace of Precipitation, MM = Missing Value Source: NWS Daily Summary

Daily Weather History Graph

Daily Weather History Graph

Search for Another Location

Airport or City:

Trip Planner

Search our weather history database for the weather conditions in past years. The results will help you decide how hot, cold, wet, or windy it might be!

Date:

Astronomy

Dec. 05, 2012 Rise Set
Actual Time 6:52 AM CST 4:47 PM CST
Civil Twilight 6:24 AM CST 5:15 PM CST
Nautical Twilight 5:53 AM CST 5:46 PM CST
Astronomical Twilight 5:22 AM CST 6:17 PM CST
Moon 11:25 PM CST (12/5) 11:26 AM CST (12/5)
Length of Visible Light 10h 50m
Length of Day
9h 54m
Waning Gibbous, 59% of the Moon is Illuminated
Dec 5
Waning Gibbous
Dec 6
Last Quarter
Dec 13
New
Dec 19
First Quarter
Dec 28
Full

Hourly Weather History & Observations

Time (CST) Temp. Dew Point Humidity Pressure Visibility Wind Dir Wind Speed Gust Speed Precip Events Conditions
12:15 AM 51.8 °F - N/A% 30.23 in 1.2 mi NNE 9.2 mph - 0.00 in   Overcast
12:35 AM 51.8 °F - N/A% 30.23 in 1.5 mi North 9.2 mph - 0.00 in   Overcast
12:55 AM 53.6 °F - N/A% 30.23 in 2.0 mi NNE 6.9 mph - N/A   Overcast
1:15 AM 51.8 °F - N/A% 30.23 in 3.0 mi NNE 8.1 mph - 0.00 in   Overcast
1:35 AM 51.8 °F - N/A% 30.23 in 5.0 mi NNE 9.2 mph - 0.00 in   Overcast
1:55 AM 51.8 °F - N/A% 30.22 in 7.0 mi NE 9.2 mph - 0.00 in   Overcast
2:15 AM 51.8 °F 51.8 °F 100% 30.22 in 9.0 mi NNE 6.9 mph - 0.00 in   Overcast
2:35 AM 51.8 °F 51.8 °F 100% 30.22 in 7.0 mi NNE 5.8 mph - 0.00 in   Overcast
2:55 AM 51.8 °F 51.8 °F 100% 30.22 in 10.0 mi NNE 6.9 mph - 0.00 in   Overcast
3:15 AM 51.8 °F 51.8 °F 100% 30.23 in 10.0 mi North 6.9 mph - 0.00 in   Overcast
3:35 AM 51.8 °F 51.8 °F 100% 30.23 in 10.0 mi North 6.9 mph - 0.00 in   Overcast
3:55 AM 51.8 °F 51.8 °F 100% 30.23 in 10.0 mi NNE 8.1 mph - 0.00 in   Overcast
4:15 AM 50.0 °F 50.0 °F 100% 30.23 in 9.0 mi NNE 9.2 mph - 0.00 in   Overcast
4:35 AM 50.0 °F 50.0 °F 100% 30.22 in 10.0 mi NE 9.2 mph - 0.00 in   Overcast
4:55 AM 50.0 °F 48.2 °F 94% 30.22 in 10.0 mi NNE 8.1 mph - 0.00 in   Overcast
5:15 AM 50.0 °F 48.2 °F 94% 30.23 in 10.0 mi NE 9.2 mph - 0.00 in   Overcast
5:35 AM 50.0 °F 48.2 °F 94% 30.24 in 10.0 mi NE 8.1 mph - N/A   Overcast
5:55 AM 50.0 °F 48.2 °F 94% 30.24 in 9.0 mi NE 9.2 mph - 0.00 in   Overcast
6:50 AM 50.0 °F 46.4 °F 87% 30.27 in 8.0 mi NNE 11.5 mph - N/A   Overcast
8:50 AM 51.8 °F 46.4 °F 82% 30.28 in 10.0 mi NE 8.1 mph - N/A   Overcast
9:50 AM 53.6 °F 44.6 °F 72% 30.28 in 10.0 mi NE 13.8 mph - N/A   Mostly Cloudy
10:50 AM 57.2 °F 44.6 °F 63% 30.26 in 10.0 mi NNE 12.7 mph - N/A   Mostly Cloudy
11:50 AM 59.0 °F 42.8 °F 55% 30.23 in 10.0 mi NE 8.1 mph - N/A   Mostly Cloudy
12:50 PM 60.8 °F 41.0 °F 48% 30.20 in 10.0 mi NE 9.2 mph - N/A   Mostly Cloudy
1:50 PM 60.8 °F 41.0 °F 48% 30.18 in 10.0 mi NNE 9.2 mph - N/A   Mostly Cloudy
2:54 PM 60.8 °F 39.2 °F 45% 30.18 in 10.0 mi NE 9.2 mph - N/A   Mostly Cloudy
3:45 PM 60.8 °F 39.2 °F 45% 30.18 in 10.0 mi NNE 9.2 mph - N/A   Mostly Cloudy
4:45 PM 55.4 °F 39.2 °F 54% 30.17 in 10.0 mi Calm Calm - N/A   Mostly Cloudy
6:50 PM 53.6 °F 37.4 °F 54% 30.15 in 10.0 mi Calm Calm - N/A   Scattered Clouds
8:15 PM 48.2 °F 37.4 °F 66% 30.16 in 9.0 mi Calm Calm - 0.00 in   Clear
8:35 PM 50.0 °F 35.6 °F 58% 30.16 in 10.0 mi Calm Calm - 0.00 in   Scattered Clouds
8:55 PM 50.0 °F 37.4 °F 62% 30.15 in 10.0 mi Calm Calm - 0.00 in   Overcast